Volver al catálogo

USA 435

ActivoMilitarVLEO
NORAD 61658·PAYLOAD·🇺🇸 United States

Lanzado Oct 24, 2024 desde Vandenberg Space Force Base

Loading…

Próximos Pases (próximas 24 horas)

TLE

ObsoletoSource: Mike McCants

Época: Aug 10, 2026, 20:00 UTC

1 61658U 24192Q   26222.83363339 0.00000000  00000-0  00000-0 0    09
2 61658  70.0172 114.9541 0003000 347.9661  12.0338 14.96713501    03

Sigue USA 435 en tiempo real con AllMySat

Download on the App Store